• Join FlightAware (Why Join?)
  • Login
  • US Flag 
05:24AM EDT


 

Airport Tracker/Info


-or-


 

Live Flight TrackerFlight Track Log ✈ ASQ5745 ✈ 10-Jul-2013 ✈ KIAD - KALB

Flight Track Log - Related Links

Times and Time Zones

All times are in EDT time to prevent confusion due to time zone crossing. See the ASQ5745 flight status page for this flight to view local times or setup timezone preferences in your user account.

Time Position Orientation Groundspeed Altitude Reporting Facility
EDT Latitude Longitude Course Direction KTS MPH feet Rate Location/Type
08:35AM 38.9667 -77.5333 329° Northwest 190 219 2,600  Level Potomac TRACON
08:37AM 39.0508 -77.5989 329° Northwest 258 297 6,000 2,040 Climbing Washington Center
08:38AM 39.1283 -77.5797 11° North 265 305 8,300 2,160 Climbing Washington Center
08:39AM 39.2100 -77.5606 10° North 288 331 10,300 1,440 Climbing Washington Center
08:40AM 39.3061 -77.5389 10° North 303 349 11,200 1,320 Climbing Washington Center
08:41AM 39.4044 -77.5147 11° North 337 388 13,000 1,680 Climbing Washington Center
08:43AM 39.6067 -77.4622 11° North 334 384 16,700 1,560 Climbing New York Center
08:44AM 39.7114 -77.4208 17° North 354 407 18,000 960 Climbing New York Center
08:45AM 39.7994 -77.3750 22° Northeast 361 415 18,700 780 Climbing New York Center
08:46AM 39.9061 -77.3283 19° North 361 415 19,600 540 Climbing New York Center
08:47AM 39.9922 -77.2442 37° Northeast 366 421 19,900 360 Climbing New York Center
08:48AM 40.0725 -77.1486 42° Northeast 377 434 20,400 420 Climbing New York Center
08:49AM 40.1572 -77.0856 30° Northeast 382 440 20,800 360 Climbing New York Center
08:50AM 40.2642 -77.0356 20° North 389 448 21,200 540 Climbing New York Center
08:51AM 40.3750 -76.9856 19° North 403 464 21,900 600 Climbing New York Center
08:52AM 40.4861 -76.9328 20° North 415 478 22,400 540 Climbing New York Center
08:53AM 40.5972 -76.8828 19° North 415 478 23,000 480 Climbing New York Center
08:54AM 40.7103 -76.8325 19° North 415 478 23,400 420 Climbing New York Center
08:55AM 40.8236 -76.7767 20° North 420 483 23,900 480 Climbing New York Center
08:56AM 40.9367 -76.7236 20° North 420 483 24,400 360 Climbing New York Center
08:57AM 41.0497 -76.6728 19° North 420 483 24,700 240 Climbing New York Center
08:58AM 41.1628 -76.6194 20° North 420 483 25,000 120 Climbing New York Center
08:59AM 41.2822 -76.5633 19° North 433 498 25,000  Level New York Center
09:00AM 41.4017 -76.5072 19° North 441 507 25,000 -60 Level New York Center
09:01AM 41.5317 -76.4436 20° North 452 520 24,900 -360 Descending New York Center
09:02AM 41.6511 -76.3869 20° North 452 520 24,300 -480 Descending New York Center
09:03AM 41.7725 -76.3278 20° North 457 526 24,000 -120 Descending New York Center
09:05AM 42.0275 -76.1997 20° North 469 540 24,000  Level Boston Center
09:06AM 42.1422 -76.1364 22° Northeast 459 528 24,000  Level Boston Center
09:07AM 42.2069 -75.9972 58° Northeast 416 479 24,000  Level Boston Center
09:08AM 42.2617 -75.8433 64° Northeast 426 490 24,000 -600 Level Boston Center
09:09AM 42.3142 -75.6889 65° Northeast 434 499 22,900 -1,260 Descending Boston Center
09:10AM 42.3708 -75.5258 65° Northeast 454 522 21,300 -1,620 Descending Boston Center
09:11AM 42.4367 -75.3294 66° East 468 539 19,400 -1,860 Descending Boston Center
09:12AM 42.4800 -75.1708 70° East 468 539 17,600 -1,800 Descending Boston Center
09:13AM 42.5131 -75.0117 74° East 451 519 15,900 -1,740 Descending Boston Center
09:14AM 42.5269 -74.8575 83° East 430 495 14,200 -1,740 Descending Boston Center
09:15AM 42.5381 -74.7225 84° East 403 464 12,900 -1,740 Descending Boston Center
09:16AM 42.5472 -74.5736 85° East 398 458 11,200 -1,020 Descending Boston Center
09:17AM 42.5808 -74.4450 70° East 333 383 10,800 -1,200 Descending Boston Center
09:18AM 42.6406 -74.3567 47° Northeast 296 341 8,700 -2,100 Descending Boston Center
09:19AM 42.6983 -74.2736 47° Northeast 305 351 6,600 -1,860 Descending Boston Center
09:20AM 42.7581 -74.1878 47° Northeast 298 343 4,800 -1,800 Descending Boston Center
09:21AM 42.8089 -74.1211 44° Northeast 288 331 3,200 -1,020 Descending Boston Center
09:22AM 42.8664 -74.0433 45° Northeast 288 331 3,000 -120 Descending Boston Center
09:23AM 42.9031 -73.9536 61° Northeast 273 314 3,000 -360 Level Boston Center
09:24AM 42.9231 -73.8633 73° East 212 244 2,300 -720 Descending Boston Center